Погода в Октябрьском

Россия / Республика Крым     45°21′46″N   36°22′03″E
темп.,
°C
ветер,
м/с
пор.,
м/с
влажн.,
%
обл.,
%
осадки,
мм/ч
давл.,
гПа
погр.,
м
1 августа, вс
вс100:00+23зсз11630 0.0 101116
03:00+23сз22640 0.0 101117
06:00+23ссз22650 0.0 101218
09:00+29ссз21460 0.0 10121000
12:00+32св12340 0.0 10112322
15:00+32в233538 0.0 10112158
18:00+31с43400 0.0 1011916
21:00+25с22590 0.0 101122
2 августа, пн
пн200:00+24ссз11620 0.0 101116
03:00+23сз33590 0.0 101135
06:00+23сз35690 0.0 101292
09:00+30ссз44410 0.0 1012704
12:00+34ссв22300 0.0 10111627
15:00+34ю33350 0.0 10111642
18:00+33зюз23340 0.0 10101042
21:00+25зюз45540 0.0 101185
3 августа, вт
вт300:00+24зюз33620 0.0 101043
03:00+24сз22560 0.0 101116
06:00+23зсз11640 0.0 101215
09:00+30зсз22400 0.0 1012603
12:00+34сз13300 0.0 10121816
15:00+34юв14300 0.0 10111883
18:00+32юз55350 0.0 1011699
21:00+27з33532 0.0 101253
4 августа, ср
ср400:00+26ссз48628 0.0 1013261
03:00+25ссв49751 0.0 1014350
06:00+24св47761 0.0 1015324
09:00+29св44495 0.0 10151016
12:00+31ссв544282 0.0 10151881
15:00+30с65410 0.0 10161307
18:00+28с55380 0.0 1015920
21:00+23с36620 0.0 1016124
5 августа, чт
чт500:00+23с35620 0.0 101693
03:00+23ссв47666 0.0 1016145
06:00+24св496787 0.0 1015250
09:00+29св78400 0.0 1015907
12:00+31всв66360 0.0 10141242
15:00+32св65320 0.0 10131494
18:00+30ссв67390 0.0 1012742
21:00+27ссв513480 0.0 1012350